Location: Clifton Park
(41.4873°N, 81.8024°W)
Time: 17:08:44
(UTC+00:00)

RESURS DK-1 - Pass Details

Date: 21 January 2020
Orbit: 554 x 564 km, 69.9° (Epoch: 25 February)

Event Time Altitude Azimuth Distance (km) Brightness Sun altitude
Rises 11:48:47 0° 190° (S) 2,721 6.0 -11.2°
Reaches altitude 10° 11:51:01 10° 184° (S) 1,833 5.1 -10.8°
Maximum altitude 11:54:58 47° 110° (ESE) 740 3.5 -10.1°
Drops below altitude 10° 11:58:56 10° 37° (NE) 1,853 5.3 -9.4°
Sets 12:01:12 0° 31° (NNE) 2,755 6.1 -9.0°
